STARLINK-2093 (47374 NORAD) Tracking and Keplerian Element Data

This shows tracking and keplerian element data for the satellite.

Feedback or suggestion? Click here.




ElementValue
Catalog47374
NameSTARLINK-2093
Epoch Orbit1348
Epoch Day106.25002315
Epoch Year2021
RAAN170.2303
Inclination53.055
Eccentricity8.29E-05
Argument of Perigee80.4258
Mean Anonmoly225.435
Mean Motion15.06420203
Decay Rate-0.0001283
L11 47374U 21005AB 21106.25002315 -.00012830 00000-0 -84356-3 0 9996
L22 47374 53.0550 170.2303 0000829 80.4258 225.4350 15.06420203 13487

Live tracking and technical data element details for STARLINK-2093 (NORAD 47374). STARLINK-2093 can be tracked NOW for your location showing map with azimuth and elevation plus other details from your city location.

Track the satellite on the map from your city or location and see movement details for azimuth, elevation, latitude, longitude, range, height, and movement on the map or in text.







IsCatalogInMostPopularTable: catalog: 47374, numindb: 15
Update: records affected: 1



GetName: 47374 STARLINK-2093

Hit Count: updated at: Fri, 16 Apr 2021 11:50:35 GMT